Change the Weather History Date:

Thursday, April 11, 2013

  Actual Average Record
Temperature  
Mean Temperature 49 °F 48 °F  
Max Temperature 54 °F 56 °F 80 °F (1904)
Min Temperature 44 °F 41 °F 24 °F (1908)
Degree Days  
Heating Degree Days 16 17  
Month to date heating degree days 165 188  
Since 1 July heating degree days 4118 4108  
Cooling Degree Days 0 0  
Month to date cooling degree days 0 0  
Year to date cooling degree days 0 0  
Moisture  
Dew Point 41 °F    
Average Humidity 74    
Maximum Humidity 93    
Minimum Humidity 54    
Precipitation  
Precipitation 0.11 in 0.18 in 3.16 in (1899)
Month to date precipitation 4.36 2.16  
Year to date precipitation 23.64 27.00  
Snow  
Snow 0.00 in - - ()
Month to date snowfall 0.0  
Snow Depth 0.00 in    
Sea Level Pressure  
Sea Level Pressure 30.31 in    
Wind  
Wind Speed 8 mph (WNW)    
Max Wind Speed 17 mph    
Max Gust Speed 21 mph    
Visibility 9 miles    
Events Rain    
T = Trace of Precipitation, MM = Missing Value Source: NWS Daily Summary

Daily Weather History Graph

Daily Weather History Graph

Search for Another Location

Airport or City:

Trip Planner

Search our weather history database for the weather conditions in past years. The results will help you decide how hot, cold, wet, or windy it might be!

Date:

Astronomy

Apr. 11, 2013 Rise Set
Actual Time 6:35 AM PDT 7:58 PM PDT
Civil Twilight 6:04 AM PDT 8:29 PM PDT
Nautical Twilight 5:27 AM PDT 9:06 PM PDT
Astronomical Twilight 4:47 AM PDT 9:47 PM PDT
Moon 7:05 AM PDT (4/11) 9:44 PM PDT (4/11)
Length of Visible Light 14h 24m
Length of Day
13h 22m
New Moon, 2% of the Moon is Illuminated
Apr 11
New Moon
Apr 18
First Quarter
Apr 25
Full
May 2
Last Quarter
May 9
New

Hourly Weather History & Observations

Time (PDT) Temp. Windchill Dew Point Humidity Pressure Visibility Wind Dir Wind Speed Gust Speed Precip Events Conditions
12:55 AM 45.0 °F 41.8 °F 42.1 °F 90% 30.36 in 10.0 mi WSW 5.8 mph - 0.01 in   Overcast
1:11 AM 46.4 °F 43.5 °F 42.8 °F 87% 30.36 in 5.0 mi WNW 5.8 mph - 0.00 in Rain Light Rain
1:45 AM 44.6 °F - 42.8 °F 93% 30.35 in 10.0 mi Calm Calm - 0.00 in   Overcast
1:55 AM 45.0 °F 43.5 °F 43.0 °F 93% 30.35 in 10.0 mi SSW 3.5 mph - 0.00 in Rain Light Rain
2:55 AM 45.0 °F 43.5 °F 43.0 °F 93% 30.34 in 10.0 mi South 3.5 mph - N/A   Overcast
3:55 AM 46.0 °F 42.5 °F 43.0 °F 89% 30.34 in 10.0 mi NW 6.9 mph - 0.00 in   Overcast
4:55 AM 45.0 °F 41.8 °F 42.1 °F 90% 30.33 in 9.0 mi West 5.8 mph - N/A   Overcast
5:17 AM 44.6 °F 41.4 °F 42.8 °F 93% 30.33 in 2.5 mi WNW 5.8 mph - 0.00 in Rain Light Rain
5:28 AM 44.6 °F 42.2 °F 42.8 °F 93% 30.34 in 1.8 mi WNW 4.6 mph - 0.03 in Rain Light Rain
5:34 AM 44.6 °F 41.4 °F 42.8 °F 93% 30.33 in 3.0 mi West 5.8 mph - 0.03 in Rain Light Rain
5:50 AM 44.6 °F 40.7 °F 42.8 °F 93% 30.32 in 10.0 mi SW 6.9 mph - 0.03 in   Overcast
5:55 AM 44.1 °F 40.8 °F 42.1 °F 93% 30.32 in 10.0 mi SSW 5.8 mph - 0.03 in   Overcast
6:36 AM 44.6 °F 43.1 °F 42.8 °F 93% 30.33 in 10.0 mi SW 3.5 mph - N/A   Overcast
6:55 AM 44.1 °F 41.5 °F 42.1 °F 93% 30.33 in 10.0 mi NNW 4.6 mph - N/A   Overcast
7:55 AM 45.0 °F 43.5 °F 43.0 °F 93% 30.34 in 10.0 mi South 3.5 mph - 0.01 in   Overcast
8:42 AM 46.4 °F 45.2 °F 44.6 °F 93% 30.35 in 10.0 mi WSW 3.5 mph - N/A   Overcast
8:55 AM 46.9 °F - 45.0 °F 93% 30.35 in 10.0 mi Calm Calm - N/A   Overcast
9:06 AM 46.4 °F - 44.6 °F 93% 30.34 in 10.0 mi Calm Calm - N/A   Mostly Cloudy
9:25 AM 48.2 °F - 44.6 °F 87% 30.34 in 10.0 mi SSW 4.6 mph - N/A   Mostly Cloudy
9:37 AM 46.4 °F 42.9 °F 42.8 °F 87% 30.34 in 1.8 mi NW 6.9 mph - 0.01 in Rain Heavy Rain
9:44 AM 46.4 °F 43.5 °F 42.8 °F 87% 30.34 in 2.0 mi West 5.8 mph - 0.04 in Rain Light Rain
9:46 AM 46.4 °F 42.9 °F 42.8 °F 87% 30.34 in 4.0 mi West 6.9 mph - 0.04 in Rain Light Rain
9:55 AM 48.2 °F - 44.6 °F 87% 30.35 in 10.0 mi West 6.9 mph - N/A   Overcast
10:36 AM 48.2 °F - 44.6 °F 87% 30.35 in 10.0 mi NW 5.8 mph - 0.03 in   Overcast
10:55 AM 50.0 °F - 44.1 °F 80% 30.35 in 10.0 mi NNW 10.4 mph - 0.03 in   Mostly Cloudy
11:55 AM 50.0 °F - 43.0 °F 77% 30.34 in 10.0 mi NNW 10.4 mph - N/A   Mostly Cloudy
12:55 PM 53.1 °F - 42.1 °F 66% 30.34 in 10.0 mi WNW 10.4 mph - N/A   Clear
1:22 PM 51.8 °F - 41.0 °F 67% 30.33 in 10.0 mi NNW 11.5 mph - N/A   Mostly Cloudy
1:34 PM 53.6 °F - 41.0 °F 62% 30.33 in 10.0 mi NNW 11.5 mph - N/A   Mostly Cloudy
1:55 PM 53.1 °F - 41.0 °F 64% 30.32 in 10.0 mi NW 12.7 mph - N/A   Clear
2:55 PM 53.1 °F - 41.0 °F 64% 30.32 in 10.0 mi NNW 10.4 mph - N/A   Clear
3:55 PM 53.1 °F - 37.0 °F 55% 30.30 in 10.0 mi NW 11.5 mph - N/A   Clear
4:55 PM 52.0 °F - 36.0 °F 54% 30.29 in 10.0 mi NW 13.8 mph - N/A   Clear
5:55 PM 51.1 °F - 36.0 °F 56% 30.28 in 10.0 mi NW 11.5 mph - N/A   Clear
6:55 PM 48.9 °F - 36.0 °F 61% 30.27 in 10.0 mi NW 11.5 mph - N/A   Clear
7:55 PM 46.9 °F - 36.0 °F 66% 30.26 in 10.0 mi NNW 10.4 mph - N/A   Clear
8:55 PM 46.0 °F 41.4 °F 36.0 °F 68% 30.26 in 10.0 mi North 9.2 mph - N/A   Clear
9:55 PM 45.0 °F 42.6 °F 35.1 °F 68% 30.25 in 10.0 mi North 4.6 mph - N/A   Clear
10:27 PM 42.8 °F - 35.6 °F 76% 30.24 in 10.0 mi Calm Calm - N/A   Mostly Cloudy
10:55 PM 41.0 °F - 36.0 °F 82% 30.23 in 10.0 mi Calm Calm - N/A   Mostly Cloudy
11:11 PM 39.2 °F - 35.6 °F 87% 30.23 in 10.0 mi Calm Calm - N/A   Scattered Clouds
11:34 PM 39.2 °F 37.0 °F 35.6 °F 87% 30.22 in 10.0 mi SSE 3.5 mph - N/A   Mostly Cloudy
11:55 PM 39.0 °F 36.8 °F 36.0 °F 89% 30.21 in 10.0 mi SSE 3.5 mph - N/A   Mostly Cloudy